1st Responders/1st Detectors/Storm Spotters Weather Summary for Carroll County, KY

Forecast Maps


Reg. NEXRAD Animation


National Fire Danger: Day 1 & 2 Map

Current NWS Watch/Warnings

SPC Convective Day 1 Outlook


Day 2 Outlook

(Click images to enlarge|Page will refresh every 5 minutes)
UK Ag. Weather Center Desktop Severe Weather Service[HERE]
Carroll County, KY Hazardous Weather Outlook Webcast
(9 AM to 9 PM Mon-Fri)
[Fast]
[Dial-up]


UKAWC 1st Detectors/1st Responders Precision Weather Forecast For CARROLL County, Kentucky
(based on the NWS County Digital Forecast)

ISSUED AT 09:00 UTC ON TUESDAY JUN 18 2019
DAY TUESDAY
EDT 3HR 6A 7A 8A 9A 10A 11A NOON 1P 2P 3P 4P 5P 6P 7P
MAX/MIN -- -- 67° -- -- -- -- -- -- -- -- -- -- 77°
TEMP 67° 67° 68° 70° 70° 72° 74° 74° 76° 76° 76° 76° 76° 76°
SKY COVER 98% 98% 98% 97% 95% 93% 91% 89% 86% 85% 82% 84% 81% 75%
Clouds
DEW PT 67° 67° 67° 67° 68° 68° 70° 70° 70° 70° 70° 70° 70° 70°
RH 96% 96% 96% 93% 93% 87% 87% 84% 81% 82% 79% 82% 81% 84%
POP 12HR -- -- 96% -- -- -- -- -- -- -- -- -- -- --
RAIN/SNOW (liq.equ) -- -- 0.17in -- -- -- -- -- 0.18in -- -- -- -- --
SNOWFALL -- -- 0in -- -- -- -- -- 0in -- -- -- -- --
WIND SPEED(MPH) 6 7 7 7 7 7 7 7 7 7 7 7 7 6
WIND Gust(MPH) 6 7 7 7 7 7 7 7 7 7 7 7 7 6
WIND DIR S S S S S S S SW SW SW SW SW SW W
DEW -- -- -- -- -- -- -- Mod Dew Lgt Dew Lgt Dew Lgt Dew Lgt Dew Lgt Dew Lgt Dew
HeatIndex 67 67 68 70 70 72 74 74 76 76 76 76 76 76
Rain Showers Definite Definite Likely Likely Chance Chance Chance Chance Chance Chance Chance Definite Likely Chance
Thunder Storm Isolated Isolated Chance Chance Chance Chance Chance Chance Chance Chance Chance Numerous Scattered Scattered
WIND CHILL -- -- -- -- -- -- -- -- -- -- -- -- -- --
SPRAY COND
DRY COND
LIVESTOCK HEATSTRESS 66.82 66.82 67.80 69.57 69.57 71.06 72.91 72.66 74.20 74.30 74.01 74.30 74.20 74.49



DAY WEDNESDAY THURSDAY FRIDAY SATURDAY SUNDAY MONDAY
EDT 6HR 8P 9P 10P 11P MIDN 1A 2A 3A 4A 5A 6A 7A 8A 9A 10A 11A NOON 1P 2P 3P 4P 5P 8P 11P 2A 5A 8A 11A 2P 5P 8P 2A 8A 2P 8P 2A 8A 2P 8P 2A 8A 2P 8P 2A 8A 2P 8P
MAX/MIN -- -- -- -- -- -- -- -- -- -- -- -- 65° -- -- -- -- -- -- -- -- 83° -- -- -- -- 67° -- -- 77° -- -- 61° 83° -- -- 65° 86° -- -- 70° 88° -- -- 70° 85° --
TEMP 74° 74° 72° 70° 70° 68° 68° 67° 67° 67° 65° 67° 68° 72° 74° 76° 79° 81° 81° 83° 83° 83° 79° 70° 67° 67° 67° 72° 76° 77° 76° 65° 65° 81° 79° 67° 68° 85° 83° 72° 74° 88° 83° 72° 72° 83° 79°
SKY COVER 71% 67% 68% 69% 70% 72% 73% 73% 74% 75% 76% 77% 77% 76% 75% 74% 74% 74% 74% 75% 76% 77% 89% 95% 88% 90% 91% 89% 84% 86% 72% 48% 40% 35% 43% 56% 67% 66% 65% 68% 69% 68% 69% 76% 78% 78% 80%
Clouds
DEW PT 70° 70° 70° 68° 68° 67° 67° 67° 67° 67° 65° 67° 67° 68° 68° 70° 70° 70° 70° 70° 70° 70° 70° 68° 67° 65° 67° 68° 68° 67° 65° 63° 63° 65° 68° 65° 67° 74° 74° 70° 70° 74° 72° 70° 68° 72° 70°
RH 87% 87% 90% 93% 96% 96% 93% 96% 100% 99% 100% 100% 93% 90% 81% 79% 74% 69% 67% 65% 66% 67% 73% 93% 100% 96% 99% 87% 76% 71% 71% 96% 93% 60% 71% 93% 93% 69% 72% 93% 90% 63% 66% 93% 90% 67% 71%
POP 12HR 67% -- -- -- -- -- -- -- -- -- -- -- 30% -- -- -- -- -- -- -- -- -- 69% -- -- -- 94% -- -- -- 77% -- 16% -- 13% -- 43% -- 48% -- 44% -- 47% -- 46% -- 47%
RAIN/SNOW (liq.equ) 0.19in -- -- -- -- -- 0.04in -- -- -- -- -- 0.01in -- -- -- -- -- 0.04in -- -- -- 0.11in -- 0.66in -- 0.43in -- 0.07in -- 0.08in -- -- -- -- -- -- -- -- -- -- -- -- -- -- -- --
SNOWFALL 0in -- -- -- -- -- 0in -- -- -- -- -- 0in -- -- -- -- -- 0in -- -- -- 0in -- 0in -- 0in -- 0in -- 0in -- -- -- -- -- -- -- -- -- -- -- -- -- -- -- --
WIND SPEED(MPH) 6 1 1 1 1 1 1 0 0 0 0 0 1 2 5 5 5 5 5 6 6 7 6 6 6 7 7 10 13 10 7 1 1 1 2 2 5 10 10 5 6 7 7 5 6 10 9
WIND DIR W NW NW NW NW NW NW NW NW W W SW SW SW SW SW SW SW SW SW SW SW S S S SW SW SW W W W NW W SW S SE S SW SW SW SW SW SW SW SW SW SW
HeatIndex 74 74 72 70 70 68 68 67 67 67 65 67 68 72 74 76 79 84 85 87 87 87 79 70 67 67 67 72 76 77 76 65 65 83 79 67 68 92 91 72 74 96 89 72 72 89 83
Rain Showers Chance Slight Chance Slight Chance Slight Chance Slight Chance Slight Chance Slight Chance Slight Chance Slight Chance Slight Chance Slight Chance Slight Chance Slight Chance Slight Chance Chance Chance Chance Chance Chance Chance Chance Likely Likely Definite Definite Definite Definite Likely Likely Likely Slight Chance -- -- -- -- -- Chance Chance Chance Chance Chance Chance Chance Chance Chance Chance Chance
Thunder Storm -- Slight Chance Slight Chance Slight Chance Slight Chance Slight Chance Slight Chance Slight Chance Slight Chance Slight Chance Slight Chance Slight Chance Slight Chance Slight Chance Chance Chance Chance Chance Chance Chance Chance Likely Likely Definite Definite Definite Definite Likely Likely Likely Slight Chance -- -- -- -- -- Chance Chance Chance Chance Chance Chance Chance Chance Chance Chance Chance
WIND CHILL -- -- -- -- -- -- -- -- -- -- -- -- -- -- -- -- -- -- -- -- -- -- -- -- -- -- -- -- -- -- -- -- -- -- -- -- -- -- -- -- -- -- -- -- -- -- --
SPRAY COND
DRY COND
LIVESTOCK HEATSTRESS 72.91 72.91 71.27 69.57 69.75 67.80 67.65 66.82 67.00 66.95 65.00 67.00 67.65 71.27 72.41 74.01 76.11 77.21 76.97 78.34 78.47 78.61 76.00 69.57 67.00 66.82 66.95 71.06 73.73 74.10 73.26 64.86 64.76 76.12 75.78 66.68 67.65 80.53 79.27 71.49 73.16 82.06 78.47 71.49 71.27 78.61 75.78

Click on individual weather variable above in left-hand column (ie., TEMP, RH, QPF 12HR) to view state forecast maps






NWS 48 Hr. Forecast Maps,

Regional Hourly Observations For CARROLL County, Kentucky
Issued at 500 AM EDT TUE JUN 18 2019
NORTHEAST KENTUCKY
  
CITY           SKY/WX    TMP DP  RH WIND       PRES   REMARKS
LEXINGTON      MOCLDY    67  64  90 S6        29.97S                  
COVINGTON      LGT RAIN  68  66  93 S8        29.95S                  
FRANKFORT      CLOUDY    70  66  87 CALM      29.95S                  


Current NOWCAST not available:
Nowcasts are not issued routinely during fair weather. Only when
precipitation or other significant weather is occuring in this county will these
forecasts be issued. Currently, there is no short term forecast in effect.


Fire Weather Forecast For CARROLL County, KY
Provided by the National Weather Service:

Issued at: Tue Jun 18 05:05:01 EDT 2019

CLOUD COVER                     MCldy        MCldy        MCldy
PRECIP TYPE                     Tstms        Tstms        Tstms
CHANCE PRECIP (%)                  80           40           70
TEMP (24H TREND)              77 (-5)      66 (-1)           81
RH % (24H TREND)              80 (+7)      100 (0)           67
20FTWND-AM(MPH)               Lgt/Var                   Lgt/Var
20FTWND-PM(MPH)               Lgt/Var      Lgt/Var        SW  5
PRECIP AMOUNT                    0.49         0.07         0.11
PRECIP DURATION                     6            2            4
MIXING HGT(FT-AGL)               5110                          
TRANSPORT WND (MPH)              S  8                       N/A
LAL                                 3            2          N/A
HAINES INDEX                        3            3             

REMARKS...None.

.FORECAST FOR DAYS 3 THROUGH 7...
.WEDNESDAY NIGHT...Showers and thunderstorms. Lows in the upper 60s. South
winds 5 to 10 mph. 
.THURSDAY...Mostly cloudy with showers and thunderstorms likely. Highs in
the upper 70s. Southwest winds 5 to 10 mph. 
.FRIDAY...Partly cloudy. A chance of showers and thunderstorms. Lows in
the lower 60s. Highs in the lower 80s. West winds 5 to 10 mph. 
.SATURDAY...Mostly cloudy. A chance of showers and thunderstorms. Lows in
the mid 60s. Highs in the mid 80s. South winds 5 to 10 mph. 
.SUNDAY...Mostly cloudy with a chance of showers and thunderstorms. Lows
around 70. Highs in the mid 80s. Southwest winds 5 to 10 mph. 
.MONDAY...Mostly cloudy with a chance of showers and thunderstorms. Lows
in the upper 60s. Highs in the lower 80s. Southwest winds 5 to 10 mph. 

SPC's Fire Weather Web Tool (Excellent!), SPC's Fire Weather Outlooks, NWS Fire Weather WEB, Fire Danger Class Map,
Keetch-Byram Drought Index, ROMAN Web, Haines Index ,
WFAS's 10-hr Dead Fuel Moist., WFAS's 100-hr Dead Fuel Moist., Probablity of Ignition, Visual blackness Map, Palmer Drought Index, HPC's Rainfall Forecast Maps


Hazardous Weather Outlook For CARROLL County, Kentucky
412 AM EDT Tue Jun 18 2019

   FLASH FLOOD WATCH IN EFFECT THROUGH THIS EVENING  

This Hazardous Weather Outlook is for Southeast Indiana, Northeast 
Kentucky, Northern Kentucky, Central Ohio, South Central Ohio, 
Southwest Ohio and West Central Ohio.

 DAY ONE  Today and tonight.

Please listen to NOAA Weather Radio or go to weather.gov on the
Internet for more information about the following hazards.

   Flash Flood Watch.

Showers and thunderstorms are expected again at times today, and any
slow moving storm will be capable of very heavy rain rates and 
localized flash flooding. 

 DAYS TWO THROUGH SEVEN  Wednesday through Monday.

Additional rounds of showers and storms will be possible again
Wednesday afternoon into Thursday, with locally heavy rainfall again
possible both of these days. Some strong to severe storms are also
possible on Wednesday afternoon and night. 

 SPOTTER INFORMATION STATEMENT  

Spotter activation is not expected at this time.

Latest CARROLL County, Kentucky Watches, Warnings and Advisories.
Additional Drought Info.: UKAWC Drought Page, Kentucky Drought Watch


7-Day Forecast For CARROLL County, KY


FLASH FLOOD WATCH IN EFFECT THROUGH THIS EVENING

TODAY
Mostly cloudy. Showers and thunderstorms, mainly this morning. Some thunderstorms may produce heavy rainfall. Locally heavy rainfall possible this morning. Highs in the upper 70s. Southwest winds around 5 mph. Chance of rain 80 percent.

TONIGHT
Partly cloudy with a chance of showers and thunderstorms in the evening, then mostly cloudy with a slight chance of showers and thunderstorms after midnight. Some thunderstorms may produce heavy rainfall in the evening. Muggy. Lows in the mid 60s. Southwest winds around 5 mph in the evening, becoming light and variable. Chance of rain 40 percent.

WEDNESDAY
Mostly cloudy. A chance of showers and thunderstorms in the morning, then showers and thunderstorms likely in the afternoon. Humid with highs in the lower 80s. Southwest winds 5 to 10 mph. Chance of rain 70 percent.

WEDNESDAY NIGHT
Showers and thunderstorms. Muggy. Lows in the upper 60s. South winds 5 to 10 mph. Chance of rain 80 percent.

THURSDAY
Showers and thunderstorms. Humid with highs in the upper 70s. Southwest winds 10 to 15 mph. Chance of rain 80 percent.

THURSDAY NIGHT
Partly cloudy. A chance of showers and thunderstorms in the evening. Lows in the lower 60s. Chance of rain 30 percent.

FRIDAY
Partly cloudy in the morning, then clearing. Highs in the lower 80s.

FRIDAY NIGHT
Partly cloudy with a chance of showers and thunderstorms. Lows in the mid 60s. Chance of rain 40 percent.

SATURDAY
Partly cloudy with a chance of showers and thunderstorms. Highs in the mid 80s. Chance of rain 50 percent.

SATURDAY NIGHT
Mostly cloudy with a chance of showers and thunderstorms. Lows around 70. Chance of rain 50 percent.

SUNDAY
Mostly cloudy with a chance of showers and thunderstorms. Highs in the mid 80s. Chance of rain 50 percent.

SUNDAY NIGHT
Mostly cloudy with a chance of showers and thunderstorms. Lows in the upper 60s. Chance of rain 50 percent.

MONDAY
Mostly cloudy with a chance of showers and thunderstorms. Highs in the lower 80s. Chance of rain 50 percent.

Ag Weather Center, Department of Biosystems & Agricultural Engineering, University of Kentucky